Hourly Data Report for January 03, 2003

SHERBROOKE A
QUEBEC

45°26'00.000" N
71°41'00.000" W
241.40 m
7028124
71610
YSC

Download Data

Hourly Data (January 2003)
Hourly Data Report for January 3, 2003
TIME
LST
Temp Definition
°C
Dew Point Definition
°C
Rel Hum Definition
%
Precip. Amount Definition
mm

Wind Dir Definition
10's deg

Wind Spd Definition
km/h
Visibility Definition
km
Stn Press Definition
kPa
Hmdx Definition


Wind Chill Definition


Weather Definition


00:00 -9.8 -16.8 57   5 6 15.0 99.67   -13  
01:00 -9.7 -16.5 58   7 7 15.0 99.70   -14  
02:00 -9.6 -16.6 57   5 9 15.0 99.80   -14  
03:00 -9.7 -16.5 58   5 11 15.0 99.72   -15  
04:00 -9.7 -16.2 59   4 9 15.0 99.66   -15  
05:00 -9.7 -15.9 61   5 7 15.0 99.68   -14  
06:00 -9.4 -16.2 58   5 11 15.0 99.65   -15  
07:00 -9.4 -16.2 58   3 9 15.0 99.69   -14  
08:00 -9.0 -16.3 55   5 9 24.1 99.71   -14 Mostly Cloudy
09:00 -8.5 -16.1 54   5 9 24.1 99.71   -13 Mostly Cloudy
10:00 -6.6 -15.7 48   4 9 24.1 99.68   -11 Mainly Clear
11:00 -5.1 -15.5 44   5 9 24.1 99.57   -9 Mostly Cloudy
12:00 -3.6 -14.5 43   4 7 24.1 99.37   -7 Mostly Cloudy
13:00 -2.0 -14.1 39   8 9 24.1 99.29   -5 Mostly Cloudy
14:00 -1.7 -14.0 38   11 9 24.1 99.23   -5 Cloudy
15:00 -2.1 -14.6 38   5 6 24.1 99.21   -4 Cloudy
16:00 -2.5 -14.9 38   8 9 24.1 99.25   -6 Cloudy
17:00 -3.2 -15.2 39   7 11 24.1 99.25   -7 Cloudy
18:00 -3.6 -15.2 40   6 11 15.0 99.23   -8  
19:00 -3.9 -14.9 42   7 9 15.0 99.16   -8  
20:00 -4.2 -15.4 41   5 11 15.0 99.11   -9  
21:00 -4.5 -14.7 45   6 9 15.0 99.06   -8  
22:00 -4.8 -14.5 47   6 13 15.0 98.96   -10  
23:00 -4.2 -15.0 43   5 11 15.0 98.88   -9  

Notes on Data Quality.

Legend

  • E = Estimated
  • M = Missing
  • NA = Not Available*
  • [empty] = Indicates an unobserved value
Date modified: